User: anonymous   Login
Location: Unspecified
(0.0000°N, 0.0000°E)
Time: 22:39:16
(UTC+02:00)
Language:

BREEZE-M DEB (TANK) - Orbit

View from above orbital plane
View from above orbital plane
View from above satellite
View from above satellite

Ground track
Ground track

The orbit data is extracted from the following two-line orbital elements,

1 33374U 08044B   17176.55493559 +.00000475 +00000-0 +12708-3 0  9990
2 33374 049.4339 277.6023 5442363 089.6831 329.3650 04.87073605154438
Epoch (UTC): 25 June 2017 13:19:06
Eccentricity: 0.5442363
inclination: 49.4339°
perigee height: 322 km
apogee height: 16323 km
right ascension of ascending node: 277.6023°
argument of perigee: 89.6831°
revolutions per day: 4.87073605
mean anomaly at epoch: 329.3650°
orbit number at epoch: 15443

The dashed part of the orbit path shows where the satellite is in the earth's shadow,  

DLR